Location: Berg
(48.4333°N, 13.9167°E)
Time: 09:58:20
(UTC+00:00)

ATLAS CENTAUR R/B - Visible Passes

Search period start: 17 January 2021 00:00
Search period end: 27 January 2021 00:00
Orbit: 477 x 668 km, 64.7° (Epoch: 12 January)

Date Brightness Start Highest point End Pass type
(mag) Time Alt. Az. Time Alt. Az. Time Alt. Az.
17 Jan 4.7 05:45:13 10° SE 05:47:04 13° ESE 05:48:55 10° E visible
18 Jan 4.2 05:46:32 10° SSE 05:49:18 20° ESE 05:52:03 10° ENE visible
19 Jan 3.3 05:48:17 10° S 05:51:34 30° ESE 05:54:48 10° ENE visible
20 Jan 2.3 05:50:19 10° SSW 05:53:52 46° ESE 05:57:23 10° NE visible
21 Jan 1.3 05:52:32 10° SSW 05:56:12 73° SE 05:59:52 10° NE visible
22 Jan 4.4 04:18:49 10° SE 04:20:16 12° ESE 04:21:42 10° E visible
22 Jan 1.0 05:54:54 10° SW 05:58:35 74° NW 06:02:15 10° NE visible
23 Jan 3.9 04:19:54 10° SSE 04:22:28 18° ESE 04:25:01 10° ENE visible
23 Jan 1.3 05:57:25 10° WSW 06:01:00 49° NW 06:04:35 10° NNE visible
24 Jan 3.1 04:21:33 10° S 04:24:42 27° ESE 04:27:51 10° ENE visible
24 Jan 1.7 06:00:05 10° WSW 06:03:28 34° NW 06:06:52 10° NNE visible
25 Jan 2.2 04:25:10 23° S 04:26:59 41° ESE 04:30:28 10° NE visible
25 Jan 2.2 06:02:53 10° W 06:05:59 25° NW 06:09:06 10° NNE visible
26 Jan 1.3 04:28:38 51° S 04:29:19 65° SE 04:32:57 10° NE visible
26 Jan 2.6 06:05:48 10° W 06:08:32 19° NW 06:11:17 10° NNE visible
